Location: Ellsworth
(33.7045°N, 96.5811°W)
Time: 05:44:46
(UTC+00:00)

Daily predictions for brighter satellites

Satellite Brightness Start Highest point End
(mag) Time Altitude Azimuth Time Altitude Azimuth Time Altitude Azimuth
SJ-6B 3.1 02:01:39 10° S 02:05:13 61° W 02:08:48 10° NNW
Cosmos 2251 Rocket 3.9 02:00:17 10° SSW 02:05:31 72° WNW 02:10:50 10° NNE
Okean O Rocket 2.5 02:01:52 10° SE 02:05:48 33° ENE 02:09:44 10° N
Cosmos 407 Rocket 4.2 02:01:31 10° SSW 02:06:40 61° WNW 02:11:49 10° N
Lacrosse 5 rocket 3.2 02:04:07 10° WNW 02:07:35 26° WSW 02:10:58 10° S
Centaur AC-119 4.2 02:03:54 10° SSW 02:07:39 30° SSE 02:16:57 10° E
USA 186 1.9 02:05:29 10° SSE 02:08:45 65° ENE 02:12:04 10° N
Cosmos 1666 Rocket 3.5 02:07:13 10° N 02:11:34 74° E 02:15:55 10° S
Cosmos 1842 3.7 02:11:53 10° SSE 02:15:15 37° E 02:18:38 10° NNE
CZ-4B R/B 3.1 02:11:28 10° SSE 02:16:43 76° ENE 02:22:02 10° N
Cosmos 1092 Rocket 4.1 02:13:35 10° S 02:19:55 87° W 02:26:18 10° N
Tiangong -0.6 02:18:40 10° NW 02:21:32 30° NNE 02:24:23 10° E
CZ-4 R/B 2.3 02:18:58 10° S 02:22:46 48° W 02:26:39 10° NNW
Cosmos 1954 Rocket 4.0 02:18:42 10° S 02:23:58 71° ESE 02:29:13 10° NNE
SPOT 5 4.2 02:22:14 10° ESE 02:25:11 19° ENE 02:28:12 10° NNE
Cosmos 1066 Rocket 4.5 02:21:40 10° S 02:27:31 80° W 02:33:20 10° N
Cosmos 676 Rocket 4.0 02:30:27 10° S 02:35:44 74° ESE 02:41:02 10° NNE
Resurs 01 Rocket 1.8 02:32:13 10° S 02:36:36 76° WSW 02:41:01 10° NNW
Cosmos 1707 2.6 02:33:31 10° S 02:37:02 56° E 02:40:34 10° NNE
ASTRO E2 3.0 02:37:00 10° SW 02:40:10 33° SSE 02:42:08 18° ESE
Cosmos 2082 Rocket 4.0 02:37:36 10° SW 02:42:47 35° WNW 02:48:00 10° N
PSLV R/B 3.5 02:40:20 11° SSE 02:43:42 90° WNW 02:47:12 10° NNW
SL-16 R/B 3.6 02:41:23 10° N 02:45:53 24° ENE 02:49:14 14° ESE
SJ 16-02 3.4 02:50:25 11° E 02:50:25 11° E 02:51:08 10° ENE
Cosmos 2333 Rocket 4.4 02:48:07 10° NE 02:49:49 11° NE 02:51:30 10° ENE
Cosmos 2369 3.7 02:45:16 10° NNW 02:51:01 88° WSW 02:55:49 15° SSE
ERS-1 Rocket 4.2 02:49:41 17° ESE 02:52:17 26° ENE 02:56:23 10° NNE
Cosmos 1674 3.7 02:49:41 10° SSW 02:52:58 41° W 02:56:16 10° N
Atlas Centaur 2 3.0 02:50:19 10° W 02:58:12 70° S 03:05:10 16° ESE
CZ-4C R/B 3.3 02:54:04 10° NNE 02:58:13 79° ESE 03:02:17 10° S
SL-27 R/B 4.3 02:59:50 12° ENE 02:59:50 12° ENE 03:00:13 10° ENE
Terra 3.2 02:56:42 18° ESE 02:58:38 23° ENE 03:02:20 10° NNE
MetOp-B 4.5 02:55:24 20° SE 02:58:55 50° ENE 03:04:04 10° N
MOS 1-B Rocket 4.4 02:52:38 10° S 02:58:58 64° WSW 03:04:39 10° NNW
Cosmos 1763 Rocket 3.5 02:55:55 10° NNW 03:01:08 84° WSW 03:04:58 18° SSE
USA 234 3.4 03:02:20 10° NE 03:08:52 78° NW 03:15:23 10° SW
FALCON 9 R/B 4.3 03:08:57 10° WSW 03:12:48 20° SSW 03:16:38 16° SSE
Cosmos 1400 Rocket 2.6 03:15:07 28° S 03:17:01 72° E 03:20:52 10° NNE
Atlas 2A Centaur Rocket 3.4 03:15:38 10° SW 03:15:54 11° SW 03:15:54 11° SW
IRS-1A Rocket 4.3 03:14:35 27° SE 03:17:32 60° ENE 03:22:57 10° N
ARGOS Delta rocket 3.6 03:15:40 29° SSE 03:17:57 76° ENE 03:22:21 10° N
Cosmos 1417 Rocket 4.5 03:13:53 10° N 03:20:01 66° E 03:23:26 27° SSE
Cosmos 1441 Rocket 2.9 03:16:33 10° N 03:20:11 82° E 03:21:16 43° SSE
ATLAS CENTAUR R/B 1.3 03:19:10 10° SW 03:22:35 63° WNW 03:26:04 10° NNE
Cosmos 1356 Rocket 3.8 03:22:32 38° ESE 03:23:08 41° E 03:27:05 10° NNE
Okean-O 3.1 03:20:32 21° S 03:23:21 57° W 03:27:41 10° NNW
Cosmos 1908 3.0 03:21:12 10° N 03:24:49 78° W 03:25:58 41° S
Cosmos 1980 Rocket 3.7 03:20:58 10° NW 03:25:51 30° WSW 03:30:41 10° SSW
Cosmos 2322 Rocket 3.2 03:23:08 10° N 03:28:14 33° ENE 03:30:11 26° E
SL-08 ROCKET BODY 4.4 03:25:30 17° S 03:30:18 85° E 03:36:24 10° N
Meteor 2-10 Rocket 4.0 03:25:28 10° N 03:30:42 44° ENE 03:32:13 36° ESE
Ariane Rocket 3.5 03:29:26 33° ESE 03:30:57 42° ENE 03:35:44 10° N
Meteor 1-22 Rocket 4.3 03:25:44 10° N 03:31:26 65° E 03:33:59 34° SSE
USA 245 3.1 03:32:06 54° E 03:32:18 55° ENE 03:36:12 10° N
Cosmos 468 Rocket 4.3 03:28:51 10° NNW 03:33:59 62° WSW 03:36:33 29° S
Cosmos 2228 Rocket 3.0 03:39:24 48° SSE 03:40:33 71° E 03:45:06 10° N
Cosmos 2278 3.7 03:35:42 10° NNW 03:41:25 85° WSW 03:43:39 39° SSE
Okean O Rocket 4.1 03:39:13 10° SW 03:42:06 17° W 03:44:59 10° NW
Cosmos 1470 4.5 03:39:02 10° NNW 03:42:11 27° W 03:44:06 17° SW
Cosmos 1241 Rocket 4.3 03:40:31 19° SSW 03:44:56 67° ESE 03:51:06 10° NNE
Landsat 4 4.2 03:45:44 41° NE 03:45:44 41° NE 03:48:31 10° N
Cosmos 1869 Rocket 3.8 03:40:51 10° NNW 03:45:17 68° W 03:46:42 41° SSW
BlueWalker 3 4.2 03:48:25 14° NE 03:48:25 14° NE 03:49:03 10° NE
Cosmos 1850 Rocket 4.3 03:40:36 11° SSW 03:45:37 67° WNW 03:50:48 10° N
Meteor 1-21 4.2 03:45:53 39° SSE 03:48:01 69° E 03:53:48 10° NNE
MOS 1 Rocket 3.6 03:47:05 46° SE 03:48:37 68° ENE 03:53:55 10° N
ATLAS 2AS CENTAUR R/B 3.6 03:45:06 10° NNW 03:51:12 35° NE 03:53:50 26° E
Cosmos 2219 Rocket 3.8 03:48:09 10° N 03:52:19 20° ENE 03:53:40 19° ENE
S3M 4.1 03:51:15 10° N 03:57:34 73° W 04:00:27 34° S
Cosmos 968 Rocket 3.5 03:55:16 30° SSW 03:57:51 76° WNW 04:03:01 10° NNE
Tiangong -0.4 03:55:21 10° WNW 03:57:06 28° W 03:57:06 28° W
Cosmos 2237 4.3 03:52:54 10° NNW 03:58:36 69° WSW 04:00:22 44° S
SeaSat 1 2.3 03:57:51 60° SE 03:58:45 81° ENE 04:03:40 10° NNW
SL-14 R/B 3.7 03:59:59 49° WSW 04:00:26 53° W 04:04:09 10° N
Spot 1 4.2 03:56:03 10° NNE 04:00:43 71° ESE 04:01:09 66° SE
SPOT 3 Rocket 3.4 04:00:41 59° SSE 04:01:40 80° ENE 04:06:50 10° N
SPOT 5 4.1 04:01:22 23° SW 04:02:58 29° W 04:06:45 10° NW
Cosmos 1655 Rocket 4.3 04:02:48 25° SSW 04:06:42 65° W 04:13:04 10° N
Landsat 5 3.5 04:05:17 10° NNE 04:08:59 72° NNE 04:08:59 72° NNE
Okean 3 3.5 04:10:42 72° N 04:10:42 72° N 04:14:28 10° N
Cosmos 1862 Rocket 3.6 04:10:50 65° WSW 04:11:11 69° W 04:15:35 10° N
Cosmos 1346 Rocket 3.2 04:08:00 10° N 04:11:07 56° N 04:11:07 56° N
Cosmos 1814 Rocket 4.5 04:12:41 10° N 04:17:47 46° ENE 04:17:57 46° ENE
Cosmos 2360 Rocket 2.1 04:12:14 10° NNW 04:17:53 68° ENE 04:18:30 63° ESE
Cosmos 1244 Rocket 4.4 04:21:10 61° SSE 04:22:14 75° E 04:28:30 10° N
Nadezhda 2 Rocket 4.5 04:23:38 60° SSE 04:24:44 74° E 04:31:09 10° N
RESURS DK-1 3.2 04:21:46 10° NNW 04:25:03 46° WNW 04:25:03 46° WNW
COSMOS 2455 3.9 04:27:48 30° ENE 04:27:48 30° ENE 04:31:31 10° NE
SJ 16-02 2.2 04:27:07 42° W 04:27:37 45° WNW 04:31:46 10° N
SL-16 R/B 3.0 04:24:48 10° NW 04:30:04 40° WSW 04:31:06 37° SW
ERS-1 Rocket 4.4 04:29:36 26° WSW 04:30:52 29° W 04:35:14 10° NW
Cosmos 2333 Rocket 2.0 04:29:05 10° NNW 04:34:52 87° ENE 04:35:10 81° SE
Terra 3.2 04:35:24 27° WSW 04:36:02 28° W 04:40:06 10° NW
CZ-3 Stage 3 4.3 03:47:42 10° W 04:37:59 79° S 04:43:32 35° ESE
Atlas Centaur 2 3.2 04:39:32 10° W 04:47:22 49° SSW 04:47:22 49° SSW
SL-08 R/B 4.3 04:48:33 76° SSW 04:49:03 84° W 04:55:10 10° N
ARIANE 5 R/B 4.1 04:53:07 30° NNE 04:53:07 30° NNE 04:55:46 10° N
Okean 1-7 4.2 04:56:18 39° NW 04:56:18 39° NW 04:59:41 10° N
CZ-4C R/B 3.5 04:58:36 24° NE 04:58:36 24° NE 05:00:41 10° NE
Cosmos 2322 4.5 04:52:07 10° N 04:57:14 40° ENE 04:57:14 40° ENE
Meteor 1-16 Rocket 4.4 04:51:35 10° NNW 04:57:27 65° W 04:57:40 64° WSW
Cosmos 2333 4.4 04:57:39 10° NNW 05:03:03 67° W 05:03:03 67° W
Cosmos 2322 Rocket 3.6 05:07:18 10° NW 05:11:59 28° W 05:11:59 28° W
Cosmos 2297 Rocket 3.3 05:14:18 33° NE 05:14:18 33° NE 05:17:43 10° NNE
GP-B 4.4 05:10:17 10° N 05:13:05 38° NNW 05:13:05 38° NNW
Cosmos 1745 Rocket 4.3 05:33:30 60° W 05:33:33 60° W 05:39:49 10° N
Meteor 2-5 Rocket 4.3 05:36:02 52° NE 05:36:02 52° NE 05:40:38 10° NNE
Cosmos 2219 Rocket 3.0 05:31:01 10° NNW 05:35:22 43° WNW 05:35:22 43° WNW
COSMOS 2428 3.1 05:34:09 10° NNW 05:38:48 59° N 05:38:48 59° N
USA 281 3.1 05:41:51 79° WNW 05:41:51 79° WNW 05:48:08 10° NNW
ATLAS 2AS CENTAUR R/B 3.5 05:35:57 10° NW 05:41:14 37° W 05:41:14 37° W
ALOS 2 4.4 05:44:00 28° NNE 05:44:00 28° NNE 05:46:15 10° N
Nadezhda 1 Rocket 4.4 05:43:23 10° NNW 05:48:56 54° WNW 05:48:56 54° WNW
SL-12 R/B(2) 4.1 06:07:20 67° ESE 06:07:20 67° ESE 06:15:58 10° NE
COSMOS 2455 4.2 06:10:52 29° WNW 06:11:59 31° NW 06:17:16 10° N
NOSS 0 Rocket 4.5 06:20:43 10° NNW 06:25:32 53° NW 06:25:32 53° NW
SL-16 R/B 4.0 06:26:42 10° N 06:31:02 22° ENE 06:32:00 21° ENE
CENTAUR R/B 2.8 06:33:07 56° NNE 06:33:07 56° NNE 06:38:17 10° NNE
Cosmos 2227 Rocket 2.9 06:37:23 50° NNW 06:37:23 50° NNW 06:41:49 10° NNE
Cosmos 2237 Rocket 2.9 06:32:04 10° NNW 06:36:08 49° NNW 06:36:08 49° NNW
GEOS 3 Rocket 4.5 06:37:23 10° NNE 06:41:03 46° N 06:41:03 46° N
CZ-4C R/B 4.3 06:43:37 13° WNW 06:44:55 14° NW 06:47:40 10° N
Nadezhda 3 Rocket 4.4 06:40:21 10° N 06:45:55 54° ENE 06:45:55 54° ENE
Cosmos 2184 Rocket 4.3 06:49:15 64° NW 06:49:15 64° NW 06:54:50 10° N
Cosmos 2297 Rocket 4.0 06:56:04 20° WNW 06:56:33 21° WNW 07:00:42 10° N
Cosmos 2219 3.8 07:01:34 54° N 07:01:34 54° N 07:05:57 10° NNE
H-2A R/B 4.3 07:01:21 10° N 07:03:04 20° NNW 07:03:04 20° NNW
Cosmos 2154 Rocket 4.3 07:06:21 58° NW 07:06:21 58° NW 07:11:48 10° N
NOSS 3-2 (A) 3.9 07:21:44 44° NNW 07:21:44 44° NNW 07:26:32 10° NNE
SL-8 Rocket 4.3 07:21:49 57° E 07:21:49 57° E 07:27:35 10° NNE
Resurs 1-4 Rocket 4.0 07:18:37 10° NE 07:22:10 20° E 07:22:10 20° E
NOSS 3-2 (C) 3.7 07:28:54 53° NE 07:28:54 53° NE 07:33:17 10° NNE
Cosmos 2263 Rocket 2.7 07:28:45 53° NNW 07:28:45 53° NNW 07:33:23 10° NNE
Cosmos 962 Rocket 4.5 07:31:14 80° NNW 07:31:14 80° NNW 07:37:17 10° N
USA 267 4.5 07:34:29 10° ENE 07:39:25 27° ESE 07:39:25 27° ESE
Cosmos 1844 Rocket 3.8 07:47:26 33° E 07:47:26 33° E 07:52:12 10° NE
Cosmos 2341 Rocket 4.0 07:56:13 65° WNW 07:56:13 65° WNW 08:02:15 10° N
COBE Rocket 4.2 07:54:19 10° N 07:58:51 70° N 07:58:51 70° N
Cosmos 864 Rocket 4.4 08:02:24 74° W 08:02:35 74° W 08:08:55 10° N
IDEFIX/ARIANE 42P 2.5 08:03:39 10° NNE 08:08:40 80° ENE 08:08:40 80° ENE
SL-16 R/B 3.1 08:09:56 10° NW 08:13:48 37° WNW 08:13:48 37° WNW
MOZ.5/SAFIR/RUBIN 5/SL-8 4.2 08:17:56 55° NNW 08:17:56 55° NNW 08:21:36 10° NNW
CZ-2C R/B 3.3 08:13:30 10° NNE 08:18:42 57° E 08:19:01 55° ESE
CZ-2C R/B 3.1 08:17:59 42° ESE 08:19:21 54° ENE 08:24:34 10° N
Cosmos 1821 Rocket 3.8 08:25:03 68° SSW 08:25:54 86° W 08:32:03 10° N
CZ-2D R/B 1.9 08:21:14 10° NNE 08:26:34 84° ESE 08:26:55 77° SSE
MSX 3.6 08:21:47 10° N 08:27:32 79° WNW 08:28:10 70° SW
Cosmos 1943 3.4 08:23:28 10° NNW 08:29:03 66° ENE 08:31:17 36° SE
Cosmos 1867 3.5 08:30:15 66° W 08:30:36 68° WNW 08:36:03 10° NNE
Cosmos 2218 Rocket 4.4 08:30:27 43° W 08:30:50 43° W 08:36:43 10° N
Cosmos 2228 3.5 08:26:43 10° N 08:30:02 52° NNW 08:30:02 52° NNW
FENGYUN 3A 3.9 08:27:56 10° NNE 08:33:15 61° E 08:34:20 50° SSE
USA 238 DEB 3.5 08:32:42 55° WSW 08:33:50 66° WNW 08:40:20 10° NNE
USA 238 3.5 08:32:45 55° WSW 08:33:52 67° WNW 08:40:23 10° NNE
H-2A R/B 4.3 08:32:28 10° N 08:35:24 40° NNW 08:35:24 40° NNW
AQUA 4.2 08:35:38 10° NNE 08:40:16 55° E 08:40:58 49° SE
ADEOS II 2.0 08:41:05 10° NNE 08:46:21 84° ESE 08:47:23 59° S
NPP 4.1 08:41:33 10° N 08:46:39 44° WNW 08:47:11 42° W
ALOS 3.0 08:42:17 10° NNE 08:46:42 44° E 08:47:51 36° SE
ATLAS 5 CENTAUR R/B 3.0 08:56:45 18° ESE 08:56:45 18° ESE 08:59:00 10° ENE
Resurs 1-4 Rocket 2.7 08:57:26 10° N 09:02:19 40° WNW 09:03:13 37° W
Cosmos 1934 Rocket 4.1 08:59:41 32° S 09:02:48 78° E 09:09:11 10° N
Cosmos 1844 3.9 09:01:41 45° WSW 09:03:09 58° WNW 09:08:53 10° NNE
Cosmos 921 Rocket 3.1 09:01:15 10° N 09:05:26 71° ENE 09:06:56 38° SSE
SL-16 R/B 2.9 08:59:19 10° SSE 09:05:28 67° ENE 09:11:39 10° N
NOSS 2-2 (C) 4.0 09:07:47 35° SE 09:07:55 35° ESE 09:10:52 10° NE
Cosmos 2123 Rocket 4.3 09:02:40 10° N 09:08:49 65° E 09:14:25 13° SSE
IRAS Rocket 4.5 09:03:56 10° NNE 09:09:23 63° ESE 09:12:12 29° S
Cosmos 1606 Rocket 3.4 09:05:50 10° N 09:10:16 81° W 09:11:20 51° S
Meteor 1-28 Rocket 3.1 09:10:16 59° SE 09:10:47 74° ENE 09:14:20 10° N
Cosmos 2058 3.3 09:10:10 38° SSE 09:11:25 56° E 09:15:25 10° NNE
USA 267 3.4 09:16:36 10° NE 09:23:04 68° NW 09:26:45 27° WSW
NOSS 2-3 (E) 4.3 09:22:56 28° SSE 09:24:04 35° ESE 09:27:28 10° NE
Cosmos 1726 Rocket 3.4 09:20:53 10° N 09:25:19 75° W 09:27:08 34° S
Cosmos 1238 Rocket 3.9 09:25:10 10° NNE 09:28:00 30° E 09:30:15 13° SE
NOSS 2-3 (C) 4.0 09:28:26 30° SSE 09:29:41 41° ESE 09:33:09 10° NE
Cosmos 1844 Rocket 3.9 09:29:05 22° W 09:31:04 28° WNW 09:35:49 10° N
METEOR-M 4.4 09:27:03 10° NNE 09:32:21 64° E 09:36:24 17° S
Delta 2 Rocket 3.1 09:33:16 25° W 09:35:30 83° SSW 09:39:49 10° ESE
SAR-Lupe-1 4.2 09:35:04 10° N 09:38:35 56° WNW 09:39:32 40° SW
SEDSat Delta rocket 2.7 09:39:27 34° WSW 09:41:03 64° S 09:45:03 10° E
H-2A R/B 4.5 09:39:06 10° NE 09:42:43 19° E 09:46:15 10° SE
Alouette 2 Rocket 4.3 09:41:56 28° SW 09:43:49 40° W 09:47:35 10° N
ASTEX 1 4.0 09:43:47 28° SW 09:45:24 35° W 09:49:51 10° NNW
IRS-1D 4.5 09:42:44 10° NNE 09:47:38 44° E 09:52:24 10° S
BREEZE-M DEB (TANK) 3.1 09:45:31 10° WNW 09:48:24 45° SW 09:57:00 10° SSE
CZ-2C R/B 2.5 09:50:23 10° NNE 09:54:56 69° ESE 09:59:19 11° S
Lacrosse 5 3.7 09:51:16 10° S 09:55:12 23° ESE 09:59:09 10° ENE
Cosmos 1544 2.9 09:55:25 34° W 09:55:36 35° W 09:58:02 10° NNW
Cosmos 2278 Rocket 3.7 09:51:07 10° SSE 09:56:04 32° ESE 10:01:02 10° NE
Envisat 3.0 09:51:48 10° N 09:56:51 70° WNW 10:00:48 17° SSW
Cosmos 1271 Rocket 3.7 09:55:46 10° SSE 09:59:08 41° E 10:02:32 10° NNE
Cosmos 1048 Rocket 4.4 09:54:57 10° NNW 09:59:54 43° WSW 10:04:53 10° S
CZ-2C R/B 4.3 09:59:27 14° W 09:59:54 15° W 10:02:45 10° WNW
UNK 3.9 09:58:30 11° S 10:02:45 51° W 10:07:14 10° NNW
Mugunghwa Rocket 4.3 09:59:07 17° WSW 10:04:00 45° S 10:09:59 10° ESE
Cosmos 1862 4.3 10:00:25 10° SSE 10:04:01 43° E 10:07:38 10° NNE
Cosmos 1758 Rocket 3.7 10:00:59 10° S 10:05:25 80° E 10:09:50 10° N
CZ-2D R/B 4.3 10:05:07 10° NW 10:05:45 10° WNW 10:06:24 10° WNW
Cosmos 2058 Rocket 3.3 10:02:07 10° NNW 10:06:21 48° W 10:10:20 11° SSW
Cosmos 1153 Rocket 4.5 10:05:17 10° S 10:11:26 87° W 10:17:34 10° N
YAOGAN 6 2.2 10:10:50 10° N 10:14:01 72° WNW 10:16:44 13° SSW
Cosmos 1812 4.0 10:15:38 10° NW 10:18:19 20° W 10:19:50 16° WSW
Cosmos 1607 4.1 10:13:00 10° NW 10:19:05 50° WSW 10:25:02 10° S
USA 276 3.2 10:17:32 13° SSW 10:19:46 31° SE 10:22:23 10° ENE
ALOS 4.1 10:20:53 10° NNW 10:23:28 15° WNW 10:26:03 10° WSW
NOSS 2-2 (E) 3.8 10:21:14 15° WSW 10:23:46 34° WNW 10:26:41 10° N
Iridium 4 Rocket 4.2 10:20:06 10° NNW 10:24:10 31° W 10:28:33 10° SSW
Cosmos 1626 Rocket 4.3 10:22:56 12° SW 10:26:35 35° W 10:30:39 10° NNW
Cosmos 1515 3.4 10:23:43 10° N 10:27:12 87° E 10:30:40 10° S
Cosmos 1378 3.5 10:24:21 10° N 10:27:33 55° E 10:30:44 10° SSE
PAYLOAD A 4.2 10:23:39 10° N 10:28:51 62° WNW 10:34:09 10° SSW
Aurora 2 Rocket 4.4 10:27:02 11° SW 10:31:26 30° SSE 10:37:35 10° ESE
Cosmos 1782 2.9 10:34:14 10° NNW 10:37:58 50° W 10:41:39 10° S
DMSP B5D2-2 4.1 10:34:18 10° S 10:39:30 68° WSW 10:44:46 10° NNW
Cosmos 2346 Rocket 4.4 10:33:41 10° N 10:39:43 76° W 10:45:45 10° S
ATLAS 5 CENTAUR R/B 2.8 10:38:00 10° W 10:40:16 17° NW 10:42:37 10° N
BREEZE-M R/B 4.4 10:40:06 10° NW 10:46:06 82° NE 10:53:38 10° SE
Cosmos 1833 Rocket 3.0 10:43:08 10° NNW 10:48:48 74° ENE 10:54:25 10° SSE
SL-16 R/B 4.0 10:45:51 10° SW 10:49:24 16° W 10:52:59 10° WNW
Meteor 1-26 Rocket 4.2 10:46:40 10° N 10:52:04 89° E 10:57:27 10° S
Thor Agena Rocket 4.1 10:47:19 10° N 10:52:19 44° WNW 10:57:16 10° SW
